Time,TemperatureF,DewpointF,PressureIn,WindDirection,WindDirectionDegrees,WindSpeedMPH,WindSpeedGustMPH,Humidity,HourlyPrecipIn,Conditions,Clouds,dailyrainin,SolarRadiationWatts/m^2,SoftwareType,DateUTC
2013-05-05 00:04:00,49.0,48.0,30.08,SSW,196,0.0,1.0,97,0.01,,,0.00,0,weatherlink.com 1.10,2013-05-04 22:04:00,
2013-05-05 00:19:00,48.6,48.0,30.09,SSW,205,0.0,1.0,97,0.01,,,0.00,0,weatherlink.com 1.10,2013-05-04 22:19:00,
2013-05-05 00:34:00,48.4,48.0,30.09,South,185,0.0,1.0,97,0.00,,,0.00,0,weatherlink.com 1.10,2013-05-04 22:34:00,
2013-05-05 00:49:00,48.8,48.0,30.10,SSW,204,1.0,1.0,97,0.00,,,0.00,0,weatherlink.com 1.10,2013-05-04 22:49:00,
2013-05-05 01:04:00,49.2,49.0,30.10,SSW,212,0.0,2.0,98,0.00,,,0.00,0,weatherlink.com 1.10,2013-05-04 23:04:00,
2013-05-05 01:19:00,49.0,48.0,30.10,WSW,257,0.0,2.0,97,0.00,,,0.00,0,weatherlink.com 1.10,2013-05-04 23:19:00,
2013-05-05 01:34:00,48.8,48.0,30.11,SSW,194,0.0,1.0,97,0.00,,,0.00,0,weatherlink.com 1.10,2013-05-04 23:34:00,
2013-05-05 01:49:00,48.9,48.0,30.11,SSW,194,0.0,1.0,97,0.00,,,0.00,0,weatherlink.com 1.10,2013-05-04 23:49:00,
2013-05-05 02:04:00,49.2,49.0,30.11,SSW,194,0.0,0.0,98,0.00,,,0.00,0,weatherlink.com 1.10,2013-05-05 00:04:00,
2013-05-05 02:19:00,49.2,49.0,30.11,SSW,194,0.0,0.0,98,0.00,,,0.00,0,weatherlink.com 1.10,2013-05-05 00:19:00,
2013-05-05 02:34:00,49.1,49.0,30.11,SSW,194,0.0,0.0,98,0.00,,,0.00,0,weatherlink.com 1.10,2013-05-05 00:34:00,
2013-05-05 02:49:00,49.1,49.0,30.11,SSW,207,0.0,2.0,98,0.00,,,0.00,0,weatherlink.com 1.10,2013-05-05 00:49:00,
2013-05-05 03:04:00,49.2,49.0,30.11,SW,225,0.0,0.0,98,0.00,,,0.00,0,weatherlink.com 1.10,2013-05-05 01:04:00,
2013-05-05 03:19:00,49.3,49.0,30.11,WSW,254,0.0,1.0,98,0.00,,,0.00,0,weatherlink.com 1.10,2013-05-05 01:19:00,
2013-05-05 03:34:00,49.3,49.0,30.11,WSW,249,0.0,0.0,98,0.00,,,0.00,0,weatherlink.com 1.10,2013-05-05 01:34:00,
2013-05-05 03:49:00,49.3,49.0,30.11,SW,236,0.0,1.0,98,0.00,,,0.00,0,weatherlink.com 1.10,2013-05-05 01:49:00,
2013-05-05 04:04:00,49.4,49.0,30.11,SW,234,0.0,1.0,98,0.00,,,0.00,0,weatherlink.com 1.10,2013-05-05 02:04:00,
2013-05-05 04:19:00,49.4,49.0,30.11,SW,234,0.0,0.0,98,0.00,,,0.00,0,weatherlink.com 1.10,2013-05-05 02:19:00,
2013-05-05 04:34:00,49.4,49.0,30.12,WSW,239,0.0,1.0,98,0.00,,,0.00,0,weatherlink.com 1.10,2013-05-05 02:34:00,
2013-05-05 04:49:00,49.3,49.0,30.12,SW,225,0.0,0.0,98,0.00,,,0.00,0,weatherlink.com 1.10,2013-05-05 02:49:00,
2013-05-05 05:04:00,49.1,49.0,30.13,SW,217,0.0,0.0,98,0.00,,,0.00,0,weatherlink.com 1.10,2013-05-05 03:04:00,
2013-05-05 05:19:00,48.8,48.0,30.13,SW,217,0.0,0.0,98,0.00,,,0.00,0,weatherlink.com 1.10,2013-05-05 03:19:00,
2013-05-05 05:34:00,48.3,48.0,30.13,SW,217,0.0,0.0,98,0.00,,,0.00,0,weatherlink.com 1.10,2013-05-05 03:34:00,
2013-05-05 05:49:00,47.8,47.0,30.13,SW,217,0.0,0.0,98,0.00,,,0.00,5,weatherlink.com 1.10,2013-05-05 03:49:00,
2013-05-05 06:05:00,47.4,47.0,30.14,SW,217,0.0,0.0,98,0.00,,,0.00,9,weatherlink.com 1.10,2013-05-05 04:05:00,
2013-05-05 06:20:00,47.5,47.0,30.14,WSW,240,1.0,2.0,98,0.00,,,0.00,25,weatherlink.com 1.10,2013-05-05 04:20:00,
2013-05-05 06:35:00,48.0,48.0,30.14,WSW,241,0.0,0.0,98,0.00,,,0.00,65,weatherlink.com 1.10,2013-05-05 04:35:00,
2013-05-05 06:50:00,48.9,48.0,30.15,SW,229,0.0,1.0,98,0.00,,,0.00,83,weatherlink.com 1.10,2013-05-05 04:50:00,
2013-05-05 07:05:00,50.1,50.0,30.16,WSW,244,1.0,3.0,99,0.00,,,0.00,76,weatherlink.com 1.10,2013-05-05 05:05:00,
2013-05-05 07:20:00,50.8,51.0,30.16,SW,232,0.0,2.0,99,0.00,,,0.00,65,weatherlink.com 1.10,2013-05-05 05:20:00,
2013-05-05 07:35:00,51.3,51.0,30.16,SW,236,0.0,2.0,98,0.00,,,0.00,97,weatherlink.com 1.10,2013-05-05 05:35:00,
2013-05-05 07:50:00,51.8,52.0,30.16,SW,227,0.0,3.0,99,0.00,,,0.00,127,weatherlink.com 1.10,2013-05-05 05:50:00,
2013-05-05 08:05:00,52.1,52.0,30.17,SW,221,0.0,2.0,99,0.00,,,0.00,120,weatherlink.com 1.10,2013-05-05 06:05:00,
2013-05-05 08:20:00,52.5,52.0,30.17,South,180,0.0,3.0,98,0.00,,,0.00,91,weatherlink.com 1.10,2013-05-05 06:20:00,
2013-05-05 08:35:00,52.7,52.0,30.18,SW,220,0.0,0.0,98,0.00,,,0.00,95,weatherlink.com 1.10,2013-05-05 06:35:00,
2013-05-05 08:50:00,52.8,52.0,30.18,SW,225,0.0,1.0,98,0.00,,,0.00,81,weatherlink.com 1.10,2013-05-05 06:50:00,
2013-05-05 09:05:00,53.1,52.0,30.18,SW,229,0.0,1.0,97,0.00,,,0.00,172,weatherlink.com 1.10,2013-05-05 07:05:00,
2013-05-05 09:20:00,53.6,53.0,30.19,WSW,252,0.0,0.0,98,0.00,,,0.00,169,weatherlink.com 1.10,2013-05-05 07:20:00,
2013-05-05 09:35:00,54.2,53.0,30.19,SW,226,0.0,1.0,97,0.00,,,0.00,213,weatherlink.com 1.10,2013-05-05 07:35:00,
2013-05-05 09:50:00,55.1,54.0,30.19,SW,227,0.0,1.0,95,0.00,,,0.00,313,weatherlink.com 1.10,2013-05-05 07:50:00,
2013-05-05 10:05:00,57.1,55.0,30.19,SW,227,0.0,0.0,93,0.00,,,0.00,290,weatherlink.com 1.10,2013-05-05 08:05:00,
2013-05-05 10:20:00,57.3,55.0,30.20,SW,227,0.0,0.0,91,0.00,,,0.00,269,weatherlink.com 1.10,2013-05-05 08:20:00,
2013-05-05 10:36:00,59.0,56.0,30.20,ENE,57,0.0,2.0,89,0.00,,,0.00,740,weatherlink.com 1.10,2013-05-05 08:36:00,
2013-05-05 10:51:00,61.9,57.0,30.20,ENE,60,0.0,2.0,85,0.00,,,0.00,872,weatherlink.com 1.10,2013-05-05 08:51:00,
2013-05-05 11:06:00,60.3,56.0,30.20,ENE,68,0.0,1.0,84,0.00,,,0.00,246,weatherlink.com 1.10,2013-05-05 09:06:00,
2013-05-05 11:21:00,59.2,55.0,30.20,East,80,0.0,1.0,86,0.00,,,0.00,309,weatherlink.com 1.10,2013-05-05 09:21:00,
2013-05-05 11:36:00,59.1,54.0,30.20,East,81,0.0,0.0,84,0.00,,,0.00,299,weatherlink.com 1.10,2013-05-05 09:36:00,
2013-05-05 11:51:00,59.7,55.0,30.20,SW,215,0.0,3.0,85,0.00,,,0.00,272,weatherlink.com 1.10,2013-05-05 09:51:00,
2013-05-05 12:06:00,61.2,57.0,30.20,ENE,62,0.0,1.0,87,0.00,,,0.00,1016,weatherlink.com 1.10,2013-05-05 10:06:00,
2013-05-05 12:21:00,63.1,56.0,30.20,NE,53,1.0,1.0,77,0.00,,,0.00,352,weatherlink.com 1.10,2013-05-05 10:21:00,
2013-05-05 12:36:00,61.9,56.0,30.20,East,79,0.0,2.0,80,0.00,,,0.00,264,weatherlink.com 1.10,2013-05-05 10:36:00,
2013-05-05 12:51:00,61.2,55.0,30.20,East,90,0.0,0.0,81,0.00,,,0.00,237,weatherlink.com 1.10,2013-05-05 10:51:00,
2013-05-05 13:06:00,60.7,55.0,30.20,East,90,0.0,0.0,82,0.00,,,0.00,132,weatherlink.com 1.10,2013-05-05 11:06:00,
2013-05-05 13:21:00,59.8,56.0,30.21,NE,52,0.0,3.0,87,0.02,,,0.02,100,weatherlink.com 1.10,2013-05-05 11:21:00,
2013-05-05 13:36:00,57.7,54.0,30.21,NNW,342,0.0,3.0,88,0.09,,,0.09,114,weatherlink.com 1.10,2013-05-05 11:36:00,
2013-05-05 13:51:00,56.4,54.0,30.20,ENE,57,0.0,1.0,90,0.13,,,0.13,146,weatherlink.com 1.10,2013-05-05 11:51:00,
2013-05-05 14:06:00,56.2,54.0,30.20,ENE,57,0.0,0.0,93,0.14,,,0.14,165,weatherlink.com 1.10,2013-05-05 12:06:00,
2013-05-05 14:21:00,56.2,53.0,30.19,ENE,57,0.0,0.0,90,0.13,,,0.15,213,weatherlink.com 1.10,2013-05-05 12:21:00,
2013-05-05 14:36:00,56.9,55.0,30.19,ENE,57,0.0,0.0,93,0.06,,,0.15,269,weatherlink.com 1.10,2013-05-05 12:36:00,
2013-05-05 14:51:00,58.2,56.0,30.19,ENE,57,0.0,0.0,93,0.02,,,0.15,269,weatherlink.com 1.10,2013-05-05 12:51:00,
2013-05-05 15:06:00,59.4,57.0,30.18,ENE,57,0.0,0.0,92,0.01,,,0.15,271,weatherlink.com 1.10,2013-05-05 13:06:00,
2013-05-05 15:21:00,60.1,56.0,30.18,ENE,57,0.0,0.0,87,0.00,,,0.15,297,weatherlink.com 1.10,2013-05-05 13:21:00,
2013-05-05 15:36:00,60.6,57.0,30.18,NE,56,0.0,0.0,89,0.00,,,0.15,278,weatherlink.com 1.10,2013-05-05 13:36:00,
2013-05-05 15:51:00,61.4,58.0,30.18,ENE,58,0.0,1.0,87,0.00,,,0.15,329,weatherlink.com 1.10,2013-05-05 13:51:00,
2013-05-05 16:06:00,61.8,58.0,30.17,NE,54,0.0,1.0,86,0.00,,,0.15,274,weatherlink.com 1.10,2013-05-05 14:06:00,
2013-05-05 16:21:00,64.6,58.0,30.17,ENE,62,0.0,3.0,80,0.00,,,0.15,663,weatherlink.com 1.10,2013-05-05 14:21:00,
2013-05-05 16:36:00,66.6,59.0,30.16,NE,41,0.0,2.0,77,0.00,,,0.15,744,weatherlink.com 1.10,2013-05-05 14:36:00,
2013-05-05 16:51:00,64.1,57.0,30.16,NE,34,0.0,1.0,79,0.00,,,0.15,179,weatherlink.com 1.10,2013-05-05 14:51:00,
2013-05-05 17:06:00,62.7,54.0,30.16,ENE,59,1.0,4.0,74,0.00,,,0.15,183,weatherlink.com 1.10,2013-05-05 15:06:00,
2013-05-05 17:21:00,62.8,56.0,30.16,NE,47,0.0,4.0,77,0.00,,,0.15,144,weatherlink.com 1.10,2013-05-05 15:21:00,
2013-05-05 17:36:00,62.1,57.0,30.16,East,99,0.0,1.0,83,0.00,,,0.15,149,weatherlink.com 1.10,2013-05-05 15:36:00,
2013-05-05 17:51:00,61.8,56.0,30.16,NE,36,0.0,2.0,80,0.00,,,0.15,109,weatherlink.com 1.10,2013-05-05 15:51:00,
2013-05-05 18:06:00,61.4,56.0,30.16,ENE,76,0.0,1.0,81,0.00,,,0.15,60,weatherlink.com 1.10,2013-05-05 16:06:00,
2013-05-05 18:21:00,61.0,55.0,30.16,ENE,76,0.0,1.0,81,0.00,,,0.15,44,weatherlink.com 1.10,2013-05-05 16:21:00,
2013-05-05 18:36:00,60.6,55.0,30.17,ENE,59,2.0,3.0,82,0.00,,,0.15,53,weatherlink.com 1.10,2013-05-05 16:36:00,
2013-05-05 18:51:00,60.3,54.0,30.17,NE,46,0.0,3.0,81,0.00,,,0.15,51,weatherlink.com 1.10,2013-05-05 16:51:00,
2013-05-05 19:06:00,60.0,55.0,30.17,East,89,0.0,0.0,84,0.00,,,0.15,49,weatherlink.com 1.10,2013-05-05 17:06:00,
2013-05-05 19:21:00,59.5,55.0,30.17,East,89,0.0,0.0,84,0.00,,,0.15,47,weatherlink.com 1.10,2013-05-05 17:21:00,
2013-05-05 19:36:00,58.9,54.0,30.17,East,89,0.0,0.0,85,0.00,,,0.15,42,weatherlink.com 1.10,2013-05-05 17:36:00,
2013-05-05 19:52:00,58.1,54.0,30.17,East,89,0.0,0.0,86,0.00,,,0.15,19,weatherlink.com 1.10,2013-05-05 17:52:00,
2013-05-05 20:06:00,57.3,53.0,30.17,East,89,0.0,0.0,85,0.00,,,0.15,11,weatherlink.com 1.10,2013-05-05 18:06:00,
2013-05-05 20:21:00,56.6,53.0,30.17,East,89,0.0,0.0,87,0.00,,,0.15,0,weatherlink.com 1.10,2013-05-05 18:21:00,
2013-05-05 20:36:00,55.7,52.0,30.17,East,89,0.0,0.0,87,0.00,,,0.15,0,weatherlink.com 1.10,2013-05-05 18:36:00,
2013-05-05 20:51:00,54.7,52.0,30.18,East,89,0.0,0.0,89,0.00,,,0.15,0,weatherlink.com 1.10,2013-05-05 18:51:00,
2013-05-05 21:06:00,53.8,51.0,30.18,East,89,0.0,0.0,91,0.00,,,0.15,0,weatherlink.com 1.10,2013-05-05 19:06:00,
2013-05-05 21:21:00,53.0,51.0,30.18,East,89,0.0,0.0,92,0.00,,,0.15,0,weatherlink.com 1.10,2013-05-05 19:21:00,
2013-05-05 21:36:00,52.3,50.0,30.18,East,89,0.0,0.0,93,0.00,,,0.15,0,weatherlink.com 1.10,2013-05-05 19:36:00,
2013-05-05 21:51:00,51.8,50.0,30.18,East,89,0.0,0.0,93,0.00,,,0.15,0,weatherlink.com 1.10,2013-05-05 19:51:00,
2013-05-05 22:06:00,51.3,50.0,30.18,East,89,0.0,0.0,94,0.00,,,0.15,0,weatherlink.com 1.10,2013-05-05 20:06:00,
2013-05-05 22:21:00,50.9,49.0,30.18,East,89,0.0,0.0,94,0.00,,,0.15,0,weatherlink.com 1.10,2013-05-05 20:21:00,
2013-05-05 22:36:00,50.5,49.0,30.18,East,89,0.0,0.0,95,0.00,,,0.15,0,weatherlink.com 1.10,2013-05-05 20:36:00,
2013-05-05 22:51:00,50.2,49.0,30.18,East,89,0.0,0.0,95,0.00,,,0.15,0,weatherlink.com 1.10,2013-05-05 20:51:00,
2013-05-05 23:06:00,49.8,49.0,30.18,East,89,0.0,0.0,95,0.00,,,0.15,0,weatherlink.com 1.10,2013-05-05 21:06:00,
2013-05-05 23:21:00,49.6,48.0,30.18,East,89,0.0,0.0,95,0.00,,,0.15,0,weatherlink.com 1.10,2013-05-05 21:21:00,
2013-05-05 23:36:00,49.8,49.0,30.18,East,89,0.0,0.0,96,0.00,,,0.15,0,weatherlink.com 1.10,2013-05-05 21:36:00,
2013-05-05 23:52:00,50.0,49.0,30.18,East,89,0.0,0.0,97,0.00,,,0.15,0,weatherlink.com 1.10,2013-05-05 21:52:00,